Preview of NWS' New Version of Forecast
This preview is not operational and should not be used for support decisions.

Regional Weather Roundup (RWR)

Issued by National Weather Service (NWS)

                            
000
ASUS43 KBIS 161802
RWRND 

NORTH DAKOTA REGIONAL WEATHER ROUNDUP
NATIONAL WEATHER SERVICE BISMARCK ND
100 PM CDT SUN JUN 16 2019

NOTE: "FAIR" INDICATES FEW OR NO CLOUDS BELOW 12,000 FEET WITH NO
SIGNIFICANT WEATHER AND/OR OBSTRUCTIONS TO VISIBILITY.


NDZ001>003-009>011-017-161900-
NORTHWEST NORTH DAKOTA
  
CITY           SKY/WX    TMP DP  RH WIND       PRES   REMARKS
WILLISTON      CLOUDY    59  47  64 N5        30.00S                  
6HR MIN TEMP:  51; 6HR MAX TEMP:  59;                                

MINOT          LGT RAIN  56  49  77 NW14      29.94R                  
MINOT AFB      LGT RAIN  55  51  88 N12       29.93S                  
$$
 
NDZ018>021-031>035-040>046-161900-
SOUTHWEST NORTH DAKOTA
  
CITY           SKY/WX    TMP DP  RH WIND       PRES   REMARKS
BISMARCK       SUNNY     67  48  50 W16G24    29.94F                  
6HR MIN TEMP:  54; 6HR MAX TEMP:  67;                                

DICKINSON      MOSUNNY   67  51  56 NW14      29.97S                  
GARRISON         N/A     56  47  71 NW16      29.96R                  
6HR MIN TEMP:  50; 6HR MAX TEMP:  57;                                

HETTINGER ARPT MOSUNNY   69  50  50 NW14G21   29.98F                  
$$
 
NDZ004>008-012>016-024-026-027-054-161900-
NORTHEAST NORTH DAKOTA
  
CITY           SKY/WX    TMP DP  RH WIND       PRES   REMARKS
GRAND FORKS    LGT RAIN  56  53  90 SE5       29.85F                  
GRND FRKS AFB  CLOUDY    57  57 100 SE5       29.86S                  
DEVILS LAKE    CLOUDY    53  52  96 NE10      29.88R                  
$$
 
NDZ022-023-025-028>030-036>039-047>053-161900-
SOUTHEAST NORTH DAKOTA
  
CITY           SKY/WX    TMP DP  RH WIND       PRES   REMARKS
FARGO          CLOUDY    66  54  65 W13G22    29.85S                  
6HR MIN TEMP:  57; 6HR MAX TEMP:  68; 6HR PCP: TRACE;                

JAMESTOWN      CLOUDY    59  50  72 NW12      29.89S                  
$$